TimeMDT,TemperatureF,Dew PointF,Humidity,Sea Level PressureIn,VisibilityMPH,Wind Direction,Wind SpeedMPH,Gust SpeedMPH,PrecipitationIn,Events,Conditions,WindDirDegrees,DateUTC
12:55 AM,63.0,57.9,84,29.97,10.0,North,10.4,-,N/A,,Overcast,10,2013-09-15 06:55:00
1:55 AM,62.1,55.9,80,29.99,10.0,North,13.8,21.9,N/A,,Overcast,10,2013-09-15 07:55:00
2:55 AM,62.1,55.9,80,30.01,10.0,NNE,9.2,-,N/A,,Overcast,30,2013-09-15 08:55:00
3:55 AM,61.0,55.9,83,30.03,10.0,North,12.7,-,N/A,,Overcast,10,2013-09-15 09:55:00
4:37 AM,60.8,55.4,82,30.10,10.0,NNE,11.5,20.7,N/A,,Overcast,20,2013-09-15 10:37:00
4:51 AM,60.8,55.4,82,30.10,10.0,NNE,11.5,-,N/A,,Overcast,30,2013-09-15 10:51:00
4:55 AM,60.1,57.0,90,30.06,10.0,NNE,12.7,-,N/A,,Overcast,20,2013-09-15 10:55:00
5:18 AM,60.8,57.2,88,30.12,9.0,NE,11.5,-,N/A,,Overcast,40,2013-09-15 11:18:00
5:55 AM,61.0,55.9,83,30.10,10.0,NE,11.5,-,N/A,,Overcast,40,2013-09-15 11:55:00
6:08 AM,60.8,55.4,82,30.14,10.0,NE,9.2,-,N/A,,Overcast,40,2013-09-15 12:08:00
6:36 AM,60.8,55.4,82,30.16,10.0,NE,12.7,-,N/A,,Overcast,40,2013-09-15 12:36:00
6:55 AM,60.1,55.9,86,30.14,7.0,NE,10.4,-,0.00,Rain,Light Rain,40,2013-09-15 12:55:00
7:32 AM,59.0,55.4,88,30.17,3.0,NNE,11.5,-,0.00,Rain,Light Rain,30,2013-09-15 13:32:00
7:55 AM,59.0,55.9,90,30.16,3.0,NE,12.7,-,0.01,Rain,Light Rain,40,2013-09-15 13:55:00
8:05 AM,59.0,55.4,88,30.19,2.5,NE,10.4,-,0.00,Rain,Light Rain,40,2013-09-15 14:05:00
8:55 AM,57.9,55.9,93,30.19,7.0,NE,12.7,18.4,0.02,Rain,Light Rain,40,2013-09-15 14:55:00
9:55 AM,57.9,55.0,90,30.22,10.0,NE,12.7,-,0.01,,Overcast,40,2013-09-15 15:55:00
10:20 AM,59.0,55.4,88,30.25,9.0,NE,10.4,-,N/A,,Overcast,40,2013-09-15 16:20:00
10:55 AM,60.1,55.9,86,30.23,10.0,NNE,9.2,-,N/A,,Overcast,20,2013-09-15 16:55:00
11:11 AM,60.8,55.4,82,30.26,10.0,NE,8.1,-,N/A,,Overcast,40,2013-09-15 17:11:00
11:55 AM,64.0,55.9,75,30.24,10.0,ENE,6.9,-,N/A,,Overcast,70,2013-09-15 17:55:00
12:04 PM,66.2,55.4,68,30.26,10.0,East,10.4,-,N/A,,Overcast,80,2013-09-15 18:04:00
12:37 PM,68.0,53.6,60,30.26,10.0,ENE,12.7,-,N/A,,Scattered Clouds,60,2013-09-15 18:37:00
12:55 PM,66.9,53.1,61,30.23,10.0,East,8.1,-,N/A,,Mostly Cloudy,90,2013-09-15 18:55:00
1:55 PM,68.0,50.0,52,30.22,10.0,ENE,10.4,-,N/A,,Overcast,70,2013-09-15 19:55:00
2:55 PM,72.0,46.9,41,30.21,10.0,NE,5.8,-,N/A,,Scattered Clouds,50,2013-09-15 20:55:00
3:55 PM,72.0,46.9,41,30.20,10.0,ENE,8.1,-,N/A,,Partly Cloudy,70,2013-09-15 21:55:00
4:55 PM,72.0,46.9,41,30.20,10.0,East,8.1,-,N/A,,Mostly Cloudy,90,2013-09-15 22:55:00
5:55 PM,69.1,48.0,47,30.21,10.0,East,9.2,-,N/A,,Scattered Clouds,90,2013-09-15 23:55:00
6:55 PM,62.1,48.0,60,30.22,10.0,ESE,5.8,-,N/A,,Clear,110,2013-09-16 00:55:00
7:55 PM,61.0,50.0,67,30.25,10.0,ESE,11.5,-,N/A,,Mostly Cloudy,110,2013-09-16 01:55:00
8:55 PM,57.0,48.9,74,30.27,10.0,ESE,9.2,-,N/A,,Clear,110,2013-09-16 02:55:00
9:55 PM,55.0,48.9,80,30.27,10.0,ESE,8.1,-,N/A,,Clear,110,2013-09-16 03:55:00
10:55 PM,53.1,48.9,86,30.27,10.0,East,6.9,-,N/A,,Clear,80,2013-09-16 04:55:00
11:55 PM,52.0,48.9,89,30.26,10.0,East,5.8,-,N/A,,Clear,100,2013-09-16 05:55:00